Track SNAP-3 EDDIE now! 10-day predictions SNAP-3 EDDIE is classified as:
1 40972U 15058J 23340.22780548 +.00009765 +00000+0 +83008-3 0 11 2 40972 64.7735 210.2703 0149914 3.0046 357.1928 14.89954393440572